Date,TemperatureHighF,TemperatureAvgF,TemperatureLowF,DewpointHighF,DewpointAvgF,DewpointLowF,HumidityHigh,HumidityAvg,HumidityLow,PressureMaxIn,PressureMinIn,WindSpeedMaxMPH,WindSpeedAvgMPH,GustSpeedMaxMPH,PrecipitationSumIn
2014-1-1,28.0,22.2,17.1,22.9,18.0,12.3,92,84,67,30.22,30.03,4,0,0,0.00
2014-1-2,23.7,20.3,10.8,20.5,17.4,8.2,93,88,82,30.02,29.65,11,3,0,0.00
2014-1-3,19.2,8.7,0.1,8.0,-0.7,-5.4,88,68,35,30.32,29.70,10,3,0,0.00
2014-1-4,29.7,11.5,-1.1,11.4,3.5,-4.5,90,72,40,30.32,30.09,5,1,0,0.00
2014-1-5,34.7,21.0,5.4,33.7,16.5,3.4,96,84,50,30.14,29.48,5,1,0,0.00
2014-1-6,43.2,26.7,0.0,41.5,17.5,-13.4,97,69,41,29.86,29.26,14,5,0,0.17
2014-1-7,-0.6,-4.6,-6.7,-13.4,-16.0,-17.8,61,57,52,30.11,29.87,11,4,0,0.00
2014-1-24,18.5,17.3,15.6,0.9,-2.5,-4.4,51,41,36,29.90,29.74,7,3,0,0.00
2014-1-25,28.8,22.1,15.3,22.6,9.3,-2.6,91,59,38,29.74,29.11,10,3,0,0.00
2014-1-26,23.4,15.6,8.1,16.2,7.0,-3.5,84,69,53,29.72,29.47,7,2,0,0.00
2014-1-27,30.0,19.6,9.1,25.0,8.1,-3.0,89,63,33,30.02,29.37,17,4,0,0.00
2014-1-28,14.7,7.4,-2.0,1.3,-6.0,-8.7,74,54,38,30.29,30.03,11,3,0,0.00
2014-1-29,23.5,9.1,-3.8,0.1,-4.2,-9.1,85,56,33,30.17,29.97,11,2,0,0.00
2014-1-30,32.0,15.9,-0.6,8.1,2.6,-3.1,89,59,33,30.30,29.93,6,2,0,0.00
2014-1-31,31.8,25.9,18.1,20.5,14.1,6.5,74,61,50,30.07,29.90,4,1,0,0.00
2014-2-1,41.4,33.7,24.8,28.6,22.5,18.1,82,64,45,30.12,29.80,5,1,0,0.01
2014-2-2,38.5,34.8,30.0,34.7,30.7,25.5,91,85,71,29.97,29.76,3,0,0,0.00
2014-2-3,34.9,29.6,18.3,29.7,24.1,15.6,91,80,69,30.22,29.97,6,1,0,0.00
2014-2-4,32.0,22.1,11.3,19.9,15.2,9.4,93,76,54,30.36,30.08,4,0,0,0.00
2014-2-5,32.7,26.7,21.2,30.6,23.8,14.5,94,89,74,30.08,29.49,5,1,0,0.00
2014-2-6,39.9,21.5,9.1,16.4,11.9,7.3,93,69,33,30.20,30.04,8,1,0,0.00
2014-2-7,35.2,17.6,5.2,9.3,4.9,0.0,92,62,28,30.19,30.08,10,2,0,0.00
2014-2-8,27.9,13.1,-0.9,16.7,5.0,-3.3,92,73,33,30.23,29.96,5,1,0,0.00
2014-2-9,21.9,14.2,5.7,17.7,11.4,3.9,93,89,77,30.06,29.74,4,0,0,0.00
2014-2-10,27.9,16.1,5.9,14.3,8.0,3.6,91,71,42,30.19,29.94,9,2,0,0.00
2014-2-11,26.4,10.7,-2.6,7.7,2.0,-4.8,92,71,39,30.39,30.20,8,1,0,0.00
2014-2-12,24.4,7.9,-8.5,6.9,-0.5,-11.3,90,70,43,30.44,30.13,4,1,0,0.00
2014-2-13,28.6,21.9,14.0,26.6,18.9,7.1,93,88,69,30.12,29.23,12,3,0,0.00
2014-2-14,36.7,29.8,21.2,27.3,23.9,19.2,92,79,64,29.60,29.22,10,3,0,0.00
2014-2-15,33.8,27.1,16.5,27.6,20.9,8.8,93,78,58,29.82,29.56,9,2,0,0.00
2014-2-16,28.9,16.6,7.0,17.1,9.3,3.1,92,74,48,30.11,29.74,6,1,0,0.00
2014-2-17,34.9,17.3,-0.9,10.9,5.2,-2.9,92,63,32,30.34,29.98,6,2,0,0.00
2014-2-18,37.9,27.7,20.1,29.4,20.9,7.5,90,77,46,29.97,29.78,11,3,0,0.00
2014-2-19,44.1,30.2,15.8,37.0,26.5,14.1,94,87,69,29.98,29.55,10,1,0,0.00
2014-2-20,47.1,32.7,20.7,34.1,28.0,19.3,94,84,45,30.11,29.73,8,1,0,0.00
2014-2-21,48.6,41.7,35.6,39.4,31.1,23.3,91,67,48,29.77,29.51,10,3,0,0.02
2014-2-22,54.5,39.0,26.8,26.1,21.2,17.5,80,52,24,29.83,29.73,11,2,0,0.00
2014-2-23,50.9,36.9,25.7,40.0,26.4,22.6,89,68,42,29.89,29.70,8,1,0,0.00
2014-2-24,34.2,27.4,22.6,23.3,13.0,9.1,68,54,42,29.97,29.74,14,4,0,0.00
2014-2-25,31.3,22.1,13.8,18.6,10.9,8.2,84,63,41,29.95,29.81,9,2,0,0.00
2014-2-26,26.4,18.1,8.8,15.5,4.6,-3.4,87,58,29,29.86,29.68,12,2,0,0.00
2014-2-27,25.9,13.6,3.6,12.2,1.1,-11.2,82,58,38,30.04,29.49,16,4,0,0.00
2014-2-28,27.1,9.4,-4.7,-0.1,-5.4,-9.9,86,54,22,30.28,30.05,6,1,0,0.00
2014-3-1,37.4,21.9,5.9,21.1,8.2,-2.0,77,57,35,30.20,29.93,4,1,0,0.00
2014-3-2,34.7,28.9,22.5,26.1,20.1,10.4,87,70,58,30.00,29.91,6,2,0,0.00
2014-3-3,29.1,15.3,6.4,9.9,-1.0,-6.0,71,49,27,30.26,29.97,10,3,0,0.00
2014-3-4,34.2,16.2,0.9,10.3,1.3,-6.3,83,56,22,30.31,30.07,5,1,0,0.00
2014-3-5,37.8,23.4,13.5,13.2,9.5,5.9,76,57,32,30.40,30.06,9,2,0,0.00
2014-3-6,34.3,19.7,7.5,12.3,6.3,1.8,78,58,29,30.50,30.26,7,2,0,0.00
2014-3-7,45.9,29.2,15.6,28.2,18.9,8.3,87,66,47,30.26,29.78,6,1,0,0.00
2014-3-8,49.3,33.7,21.6,35.4,27.9,19.6,92,80,57,29.81,29.67,9,2,0,0.00
2014-3-9,40.6,33.1,27.3,31.0,18.8,11.9,91,58,35,29.97,29.79,10,3,0,0.00
2014-3-10,60.8,40.8,30.2,36.9,29.1,20.9,86,64,38,29.76,29.41,8,1,0,0.00
2014-3-11,64.8,45.1,31.8,42.4,35.0,29.1,94,71,34,29.57,29.42,8,1,0,0.00
2014-3-12,41.2,33.3,18.5,39.9,28.6,10.1,96,83,67,29.50,28.95,14,3,0,0.02
2014-3-13,32.2,19.6,11.7,9.7,2.6,-4.0,70,49,24,29.98,29.44,13,4,0,0.00
2014-3-14,56.3,34.3,16.5,29.1,19.8,7.1,79,58,34,29.98,29.59,9,2,0,0.00
2014-3-15,51.1,42.6,33.6,39.3,29.2,20.0,83,60,41,29.95,29.54,14,4,0,0.00
2014-3-16,33.1,27.6,23.5,20.4,10.7,2.9,65,49,39,30.13,29.95,10,2,0,0.00
2014-3-17,37.8,27.1,17.8,13.3,4.5,-1.5,56,39,19,30.01,29.85,6,1,0,0.00
2014-3-18,48.9,35.2,25.5,21.1,13.8,8.1,67,42,26,30.08,29.93,12,2,0,0.00
2014-3-19,38.7,36.4,35.2,34.2,25.7,8.4,93,68,31,30.04,29.66,6,2,0,0.00
2014-3-20,43.9,39.1,35.6,37.2,30.3,23.2,96,71,56,29.83,29.59,12,4,0,0.00
2014-3-21,59.4,39.6,28.6,23.6,21.2,17.1,75,50,19,29.91,29.82,9,2,0,0.00
2014-3-22,55.8,40.9,29.1,37.2,26.5,20.5,86,59,34,29.93,29.61,14,4,0,0.00
2014-3-23,41.4,32.6,21.0,25.8,15.8,4.9,82,53,25,30.10,29.88,8,2,0,0.00
2014-3-24,38.8,23.8,15.8,11.5,5.6,3.6,66,47,24,30.18,29.98,10,2,0,0.00
2014-3-25,39.6,27.8,19.2,24.5,16.1,10.1,85,63,40,29.99,29.72,9,1,0,0.00
2014-3-26,35.4,25.8,19.9,23.3,8.4,-0.3,87,51,24,30.17,29.76,14,4,0,0.00
2014-3-27,44.8,30.2,12.7,21.5,13.0,5.3,82,52,28,30.27,29.95,9,2,0,0.00
2014-3-28,58.3,44.4,32.7,49.5,37.2,21.1,94,77,47,30.00,29.72,7,1,0,0.02
2014-3-29,47.3,41.0,31.5,41.8,37.6,30.0,95,88,73,30.04,29.55,9,1,0,0.05
2014-3-30,39.2,37.1,34.7,37.2,32.1,29.6,93,82,74,29.77,29.54,14,6,0,0.02
2014-3-31,66.4,46.8,35.6,33.6,30.0,27.1,78,56,25,30.02,29.78,11,4,0,0.00
2014-4-1,65.3,43.8,27.9,36.4,31.1,25.4,90,64,34,30.03,29.74,5,1,0,0.00
2014-4-2,66.7,48.9,35.2,38.0,32.6,26.7,87,59,23,29.97,29.80,9,1,0,0.00
2014-4-3,61.2,48.4,39.6,42.3,31.4,22.3,93,55,25,30.03,29.80,6,1,0,0.00
2014-4-4,45.9,43.9,42.1,42.3,41.3,40.1,94,91,83,29.83,29.54,8,2,0,0.02
2014-4-5,47.3,39.7,28.6,41.4,30.9,24.7,95,72,45,30.03,29.56,11,3,0,0.00
2014-4-6,64.9,40.7,24.3,30.0,24.7,17.4,93,60,18,30.11,29.92,8,1,0,0.00
2014-4-7,44.8,37.3,30.2,43.3,33.2,26.3,96,86,49,30.01,29.41,5,1,0,0.02
2014-4-8,60.1,47.5,36.7,46.7,40.7,32.9,98,79,44,29.55,29.25,18,2,0,0.00
2014-4-9,62.6,45.0,29.8,36.6,28.3,20.9,95,59,24,29.89,29.55,10,2,0,0.00
2014-4-10,72.9,50.7,27.7,36.2,30.9,24.3,87,52,25,30.02,29.70,12,3,0,0.00
2014-4-11,61.0,52.3,43.3,54.0,45.4,35.2,95,80,38,29.93,29.69,8,1,0,0.00
2014-4-12,75.0,53.3,40.8,50.2,41.5,35.7,95,71,26,30.11,29.90,6,1,0,0.00
2014-4-13,86.7,67.8,47.1,54.3,49.1,39.9,81,54,26,29.90,29.62,10,3,0,0.00
2014-4-14,77.4,65.5,55.4,59.3,55.0,51.3,95,71,44,29.68,29.49,18,3,0,0.00
2014-4-15,60.6,47.3,30.0,59.2,43.9,17.4,97,88,59,29.92,29.29,11,2,0,0.04
2014-4-16,53.1,34.0,23.0,23.5,16.2,10.7,76,50,25,30.41,29.93,6,2,0,0.00
2014-4-17,59.4,41.3,24.8,32.4,25.5,20.6,87,57,32,30.50,30.32,15,2,0,0.00
2014-4-18,61.3,45.4,30.2,38.3,33.8,27.4,89,66,41,30.41,30.06,8,2,0,0.00
2014-4-19,65.7,49.2,33.8,36.9,32.3,25.9,92,59,27,30.22,30.09,12,2,0,0.00
2014-4-20,73.2,59.9,41.5,36.1,34.1,31.0,68,40,23,30.30,30.06,8,2,0,0.00
2014-4-21,80.2,56.6,36.0,41.7,37.5,32.8,89,54,21,30.07,29.62,6,1,0,0.00
2014-4-22,67.5,54.9,47.5,57.6,45.1,34.2,90,70,46,29.62,29.36,10,1,0,0.00
2014-4-23,51.4,45.3,36.0,36.5,33.8,29.0,78,64,52,29.83,29.50,11,4,0,0.00
2014-4-24,67.3,46.6,28.2,30.2,21.7,15.2,82,43,14,29.96,29.81,9,2,0,0.00
2014-4-25,66.2,49.5,35.2,46.3,32.9,23.1,93,57,26,29.89,29.54,9,2,0,0.00
2014-4-26,69.3,54.0,39.9,46.5,39.0,29.9,94,61,27,29.79,29.47,12,3,0,0.00
2014-4-27,65.5,50.2,39.9,37.3,33.5,30.5,72,54,33,30.00,29.79,11,3,0,0.00
2014-4-28,62.4,46.6,32.0,46.1,35.4,29.4,90,68,38,30.02,29.74,7,1,0,0.00
2014-4-29,53.2,47.3,42.1,45.3,42.7,40.5,94,85,71,30.11,29.83,15,3,0,0.00
2014-4-30,50.9,46.2,41.9,50.1,44.9,40.3,97,95,94,30.09,29.69,6,1,0,0.01
2014-5-1,69.3,57.1,44.4,57.6,49.4,41.1,99,78,43,29.69,29.55,15,2,0,0.01
2014-5-2,58.8,50.0,39.7,44.4,39.9,37.8,95,71,47,29.70,29.61,10,1,0,0.00
2014-5-3,66.4,52.1,42.6,48.1,42.7,39.0,91,73,42,29.71,29.52,12,2,0,0.00
2014-5-4,60.3,49.6,41.2,45.9,39.8,35.1,97,71,43,29.79,29.59,14,3,0,0.00
2014-5-5,66.2,52.1,36.3,38.9,34.5,30.2,90,56,27,29.87,29.70,8,1,0,0.00
2014-5-6,73.6,55.4,40.3,39.6,36.0,33.3,84,52,26,29.93,29.74,10,1,0,0.00
2014-5-7,65.5,51.7,37.4,46.1,38.0,33.7,87,62,35,30.08,29.94,6,1,0,0.00
2014-5-8,87.4,63.0,48.6,62.2,54.2,45.5,96,76,40,29.99,29.75,5,1,0,0.02
2014-5-9,79.5,67.5,55.8,64.6,60.4,53.8,93,79,54,29.90,29.66,7,2,0,0.00
2014-5-10,76.1,67.6,59.5,65.8,60.6,57.5,97,79,59,29.73,29.61,10,2,0,0.02
2014-5-11,86.9,66.2,47.7,58.0,47.2,40.8,91,56,22,29.91,29.73,8,1,0,0.00
2014-5-12,80.6,64.0,50.5,66.0,55.4,47.1,94,75,51,29.96,29.84,9,1,0,0.00
2014-5-13,92.1,71.0,58.1,70.5,62.9,57.0,96,78,47,29.97,29.78,5,1,0,0.00
2014-5-14,79.5,66.5,56.1,64.5,57.4,49.0,90,73,59,30.04,29.91,7,2,0,0.00
2014-5-15,79.7,68.2,63.3,66.8,63.2,60.6,96,85,63,29.94,29.69,9,2,0,0.28
2014-5-16,65.8,56.0,47.5,64.3,53.3,46.1,97,91,79,29.78,29.61,6,1,0,0.14
2014-5-17,66.6,50.7,40.5,46.8,43.1,38.1,97,78,36,30.01,29.76,8,1,0,0.00
2014-5-18,67.3,51.1,38.1,44.2,38.6,34.0,98,67,32,30.12,30.00,5,1,0,0.00
2014-5-19,74.3,54.8,36.7,48.3,41.3,35.6,96,65,33,30.12,29.95,11,1,0,0.00
2014-5-20,73.6,58.3,42.1,53.8,47.2,40.8,96,71,40,30.07,29.84,8,1,0,0.00
2014-5-21,68.5,57.8,52.7,64.4,56.6,51.8,98,96,86,29.87,29.68,3,0,0,0.16
2014-5-22,86.2,67.8,57.7,68.1,57.1,47.1,99,73,34,29.74,29.52,18,2,0,0.02
2014-5-23,73.0,61.3,47.7,53.4,48.1,43.7,96,65,38,29.86,29.68,9,2,0,0.00
2014-5-24,79.3,63.0,52.3,61.5,53.2,48.8,95,73,37,29.94,29.80,5,1,0,0.00
2014-5-25,82.6,63.4,45.7,58.2,50.4,45.1,98,68,29,30.00,29.82,5,1,0,0.00
2014-5-26,90.0,68.0,47.7,58.3,52.9,46.6,96,65,28,29.95,29.67,9,2,0,0.00
2014-5-27,86.7,67.2,57.9,69.9,62.5,55.9,98,86,50,29.75,29.62,5,0,0,0.12
2014-5-28,85.6,71.8,62.2,70.3,63.0,54.7,99,77,41,29.87,29.63,6,1,0,0.01
2014-5-29,61.9,56.9,54.9,56.2,54.4,52.9,95,91,77,29.99,29.87,5,0,0,0.00
2014-5-30,81.9,65.6,54.9,57.1,53.7,50.4,97,70,34,29.98,29.83,8,1,0,0.00
2014-5-31,81.1,64.2,51.3,55.1,48.1,41.1,96,62,27,30.07,29.95,10,2,0,0.00
2014-6-1,85.6,64.2,44.6,57.0,50.7,43.5,97,66,32,30.17,29.95,9,1,0,0.00
2014-6-2,86.9,69.3,50.7,68.2,60.2,49.6,96,75,54,30.02,29.77,6,1,0,0.00
2014-6-3,89.4,70.7,61.7,73.3,65.9,60.8,97,86,50,29.80,29.59,7,1,0,0.03
2014-6-4,77.0,64.9,57.0,62.7,58.2,52.7,98,82,44,29.73,29.56,6,1,0,0.00
2014-6-5,74.7,64.2,56.3,60.3,55.2,51.6,98,76,47,29.66,29.52,8,1,0,0.16
2014-6-6,82.8,64.5,49.5,58.3,52.4,47.8,95,67,40,29.80,29.66,5,1,0,0.00
2014-6-7,89.4,67.0,49.8,63.6,54.7,49.0,97,70,33,29.89,29.70,5,1,0,0.00
2014-6-8,83.8,66.5,52.2,68.1,60.7,51.4,97,84,54,29.78,29.56,5,1,0,0.02
2014-6-9,72.0,67.2,63.5,68.5,65.8,62.9,98,95,88,29.74,29.61,4,0,0,0.00
2014-6-10,84.2,71.9,64.4,72.5,67.3,63.5,98,87,58,29.75,29.67,3,0,0,0.00
2014-6-11,75.9,69.5,63.7,71.1,67.2,63.1,98,93,82,29.82,29.72,7,2,0,0.36
2014-6-12,67.3,65.8,63.1,66.7,65.2,62.5,99,98,98,29.82,29.64,5,1,0,0.64
2014-6-13,85.1,71.1,63.9,72.2,66.7,61.5,99,88,57,29.67,29.47,6,1,0,0.48
2014-6-14,65.1,59.1,51.6,63.0,53.6,50.3,99,83,61,29.94,29.68,7,1,0,0.00
2014-6-15,86.5,64.4,48.6,66.1,55.7,48.3,99,77,43,30.02,29.84,7,2,0,0.00
2014-6-16,91.8,69.6,54.9,71.2,63.0,54.6,99,83,49,29.97,29.75,9,1,0,0.00
2014-6-17,93.2,78.0,64.2,75.9,69.9,63.6,99,78,52,29.91,29.63,7,1,0,0.00
2014-6-18,92.3,77.6,65.5,72.8,67.6,64.0,96,73,45,29.79,29.65,10,2,0,0.00
2014-6-19,84.4,69.4,54.9,70.6,65.6,54.1,98,89,48,29.91,29.73,3,0,0,0.06
2014-6-20,83.7,63.9,48.9,63.1,53.9,48.4,99,75,36,29.92,29.72,6,2,0,0.00
2014-6-21,85.3,66.6,50.2,64.9,55.6,48.5,96,70,43,29.81,29.63,5,1,0,0.00
2014-6-22,89.1,68.0,55.4,64.1,57.0,53.3,97,72,36,29.81,29.68,6,1,0,0.00
2014-6-23,85.5,70.5,55.8,67.0,61.7,55.2,98,76,51,29.89,29.78,7,1,0,0.00
2014-6-24,88.3,74.3,64.6,73.9,68.4,62.6,97,83,60,29.88,29.69,5,1,0,0.00
2014-6-25,84.4,73.5,67.8,74.6,71.0,67.2,98,92,70,29.72,29.58,4,0,0,0.22
2014-6-26,85.6,72.6,65.7,71.8,67.4,65.4,99,85,53,29.82,29.65,7,1,0,0.00
2014-6-27,86.7,72.9,61.3,69.6,65.2,61.0,99,79,47,29.96,29.82,6,1,0,0.00
2014-6-28,90.0,73.8,61.9,69.5,64.9,61.6,99,77,45,30.07,29.92,5,1,0,0.00
2014-6-29,86.7,72.4,59.4,70.4,65.5,59.1,99,81,56,30.02,29.84,4,1,0,0.00
2014-6-30,90.3,76.5,65.5,75.4,69.3,64.5,97,80,57,29.86,29.66,4,1,0,0.00
2014-7-1,93.7,78.8,67.1,80.4,73.1,66.8,99,85,55,29.69,29.52,8,1,0,0.00
2014-7-2,94.5,79.8,70.2,77.8,72.5,69.1,99,81,46,29.68,29.56,7,1,0,0.00
2014-7-3,89.4,72.3,65.1,74.1,68.5,64.8,99,90,51,29.82,29.63,8,1,0,0.52
2014-7-4,75.9,65.0,55.0,64.3,55.7,50.9,99,75,43,29.99,29.81,8,2,0,0.00
2014-7-5,85.8,66.9,50.7,60.9,53.6,50.1,99,68,32,30.08,29.90,5,1,0,0.00
2014-7-6,83.7,67.7,52.9,65.6,57.2,52.6,99,73,38,29.94,29.68,6,1,0,0.00
2014-7-7,92.3,72.8,60.4,73.8,65.4,59.3,99,80,47,29.68,29.46,11,2,0,0.17
2014-7-8,88.7,73.1,64.8,73.5,69.0,64.5,99,89,59,29.59,29.37,9,1,0,0.12
2014-7-9,84.2,71.7,62.8,70.9,65.5,61.0,99,83,53,29.78,29.54,8,1,0,0.00
2014-7-10,81.7,69.9,61.9,66.6,63.6,61.2,99,82,58,29.94,29.79,4,1,0,0.00
2014-7-11,91.6,71.3,57.7,68.6,62.0,57.4,99,77,39,30.04,29.91,4,1,0,0.00
2014-7-12,93.0,74.3,60.4,70.9,65.0,60.1,99,77,41,30.01,29.80,6,1,0,0.00
2014-7-13,88.5,73.1,64.0,75.7,69.2,63.7,99,89,62,29.82,29.58,5,1,0,0.76
2014-7-14,79.2,72.9,67.1,74.6,70.9,66.8,99,94,79,29.71,29.59,2,0,0,0.00
2014-7-15,81.7,72.2,65.1,73.0,69.6,64.5,99,92,70,29.60,29.49,6,1,0,0.01
2014-7-16,82.8,68.6,56.8,64.3,57.7,53.2,99,72,40,29.74,29.59,7,2,0,0.00
2014-7-17,82.2,66.1,54.3,59.2,55.2,50.5,99,72,36,29.95,29.74,7,1,0,0.00
2014-7-18,81.0,65.2,51.6,64.6,56.4,51.3,99,77,40,30.08,29.95,5,1,0,0.00
2014-7-19,80.2,69.0,59.4,66.7,62.2,58.1,97,80,56,30.04,29.90,5,0,0,0.00
2014-7-20,83.5,71.3,61.0,68.0,64.0,60.6,99,80,49,29.96,29.83,5,1,0,0.00
2014-7-21,86.9,72.1,60.6,72.5,66.9,60.3,99,85,60,29.99,29.88,4,0,0,0.00
2014-7-22,91.0,76.0,65.7,77.0,70.7,65.4,99,85,59,29.97,29.77,5,1,0,0.00
2014-7-23,91.0,76.5,67.1,76.2,70.4,63.1,99,83,54,29.78,29.57,5,1,0,0.00
2014-7-24,82.4,69.1,56.7,61.8,57.5,52.5,89,69,41,29.80,29.69,6,2,0,0.00
2014-7-25,86.9,64.9,48.7,59.4,53.5,48.4,99,72,29,29.91,29.75,6,1,0,0.00
2014-7-26,86.5,68.3,56.1,69.6,60.9,54.3,96,80,47,29.82,29.61,4,1,0,0.00
2014-7-27,90.0,74.4,63.5,72.4,66.6,63.2,99,80,46,29.63,29.37,9,2,0,0.02
2014-7-28,77.0,67.0,59.0,66.6,62.4,56.2,99,86,61,29.62,29.29,9,2,0,0.08
2014-7-29,57.0,56.9,56.7,55.9,55.9,55.9,97,96,96,29.63,29.63,0,0,0,0.00